(501746) = 2007 UN75 = 2014 UL129

Discovered at Mount Lemmon on 2007-10-31 by Mt. Lemmon Survey.

Orbit

Orbit type: Main Belt

Note: WebGL enabled browser required.

epoch2024-03-31.0
epoch JD2460400.5
perihelion date2023-04-14.34487
perihelion JD2460048.84488
argument of perihelion (°)312.55056
ascending node (°)232.51431
inclination (°)8.47266
eccentricity0.0898435
perihelion distance (AU)2.1100465
Tisserand w.r.t. Jupiter3.6
ΔV w.r.t. Earth (km/sec)9.4
semimajor axis (AU)2.3183338
mean anomaly (°)98.18770
mean daily motion (°/day)0.27921590
aphelion distance (AU)2.527
period (years)3.53
P-vector [x]-0.98971566
P-vector [y]-0.04231264
P-vector [z]-0.13664758
Q-vector [x]0.08242726
Q-vector [y]-0.94941164
Q-vector [z]-0.30302356
absolute magnitude17.83
phase slope0.15
uncertainty0
referenceE2024-GJ9
observations used168
oppositions8
arc length (days)7185
first opposition used2003
last opposition used2023
residual rms (arc-secs)0.66
perturbers coarse indicatorM-v
perturbers precise indicator003Ek
first observation date used2003-09-20.0
last observation date used2023-05-23.0
computer nameMPCLINUX
JD of orbit computation2458025.144378
perihelion JD uncertainty (days)5.3970E-05
argument of perihelion uncertainty (°)3.8565E-05
ascending node uncertainty (°)3.5614E-05
inclination uncertainty (°)4.5206E-06
eccentricity uncertainty 6.3058E-08
perihelion distance uncertainty (AU)1.4238E-07
Minimum Orbit Intersection Distances (in AU)
for orbit epoch: 2460400.5, reference: E2024-GJ9
Mercury1.69258
Venus1.40243
Earth1.11971
Mars0.52333
Jupiter2.46004
Saturn6.67186
Uranus16.343
Neptune27.3277

Observations

169 total observations over interval: 2003 09 20.20566 – 2023 05 23.215299
These data are available for download (format description).

Date (UT) J2000 RA J2000 Dec Magn Location Ref
2003 09 20.20566 23 05 56.66 +07 21 07.7 22.2 V 691 – Steward Observatory, Kitt Peak-Spacewatch MPS 815590
2003 09 20.23359 23 05 55.18 +07 20 53.6 22.2 V 691 – Steward Observatory, Kitt Peak-Spacewatch MPS 815590
2003 09 20.26049 23 05 53.75 +07 20 40.8 22.1 V 691 – Steward Observatory, Kitt Peak-Spacewatch MPS 815590
2007 10 31.26215 02 55 42.42 +19 12 10.8 20.2 V G96 – Mt. Lemmon Survey MPS 225123
2007 10 31.27053 02 55 41.91 +19 12 07.0 21.2 V G96 – Mt. Lemmon Survey MPS 225123
2007 10 31.27890 02 55 41.41 +19 12 03.8 20.4 V G96 – Mt. Lemmon Survey MPS 225123
2007 10 31.28722 02 55 40.90 +19 11 59.9 20.8 V G96 – Mt. Lemmon Survey MPS 225123
2007 11 02.30378 02 53 42.21 +18 56 28.3 20.6 V G96 – Mt. Lemmon Survey MPS 225123
2007 11 02.31207 02 53 41.67 +18 56 24.0 20.6 V G96 – Mt. Lemmon Survey MPS 225123
2007 11 02.32024 02 53 41.20 +18 56 20.6 20.6 V G96 – Mt. Lemmon Survey MPS 225123
2007 11 02.32844 02 53 40.66 +18 56 16.6 20.9 V G96 – Mt. Lemmon Survey MPS 225123
2014 10 23.34088 02 24 58.73 +18 40 36.7 20.6 V G96 – Mt. Lemmon Survey MPS 542629
2014 10 23.34690 02 24 58.37 +18 40 33.8 20.2 V G96 – Mt. Lemmon Survey MPS 542629
2014 10 23.35516 02 24 57.86 +18 40 30.0 20.2 V G96 – Mt. Lemmon Survey MPS 542629
2014 10 23.36118 02 24 57.56 +18 40 27.3 20.4 V G96 – Mt. Lemmon Survey MPS 542629
2014 10 28.52960 02 19 58.185 +17 58 57.45 21.4 w F51 – Pan-STARRS 1, Haleakala MPS 542629
2014 10 28.54164 02 19 57.463 +17 58 51.20 20.9 w F51 – Pan-STARRS 1, Haleakala MPS 542629
2014 10 28.55368 02 19 56.745 +17 58 45.00 20.9 w F51 – Pan-STARRS 1, Haleakala MPS 542629
2014 10 28.56574 02 19 56.014 +17 58 39.09 20.9 w F51 – Pan-STARRS 1, Haleakala MPS 542629
2014 10 31.16864 02 17 24.10 +17 36 47.3   691 – Steward Observatory, Kitt Peak-Spacewatch MPS 542629
2014 10 31.18641 02 17 23.05 +17 36 38.8   691 – Steward Observatory, Kitt Peak-Spacewatch MPS 542629
2014 10 31.20417 02 17 21.96 +17 36 29.7   691 – Steward Observatory, Kitt Peak-Spacewatch MPS 542629
2014 11 21.41614 01 58 57.976 +14 36 42.81 21.2 w F51 – Pan-STARRS 1, Haleakala MPS 547931
2014 11 21.43931 01 58 56.987 +14 36 31.73 21.5 w F51 – Pan-STARRS 1, Haleakala MPS 547931
2016 01 16.60712 12 21 28.630 -13 30 14.53 21.4 w F51 – Pan-STARRS 1, Haleakala MPS 671917
2016 01 16.61949 12 21 29.170 -13 30 20.54 21.2 w F51 – Pan-STARRS 1, Haleakala MPS 671917
2016 01 16.63185 12 21 29.729 -13 30 26.45 21.0 w F51 – Pan-STARRS 1, Haleakala MPS 671917
2016 02 04.54449 12 31 40.733 -15 34 15.02 21.2 w F51 – Pan-STARRS 1, Haleakala MPS 675411
2016 02 04.55680 12 31 40.908 -15 34 18.39 21.0 w F51 – Pan-STARRS 1, Haleakala MPS 675411
2016 02 04.56915 12 31 41.101 -15 34 21.86 20.9 w F51 – Pan-STARRS 1, Haleakala MPS 675411
2016 02 04.58147 12 31 41.276 -15 34 25.36 20.9 w F51 – Pan-STARRS 1, Haleakala MPS 675411
2016 03 11.32663 12 22 31.76 -15 31 22.2 21.2 V 703 – Catalina Sky Survey MPS 815590
2016 03 11.33573 12 22 31.34 -15 31 18.3 20.4 V 703 – Catalina Sky Survey MPS 815590
2016 03 11.34027 12 22 31.03 -15 31 16.0 21.2 V 703 – Catalina Sky Survey MPS 815590
2016 03 12.44185 12 21 42.293 -15 25 00.36 20.2 w F51 – Pan-STARRS 1, Haleakala MPS 692745
2016 03 12.45588 12 21 41.623 -15 24 55.52 20.1 w F51 – Pan-STARRS 1, Haleakala MPS 692745
2016 03 12.46904 12 21 40.988 -15 24 50.89 20.1 w F51 – Pan-STARRS 1, Haleakala MPS 692745
2016 03 12.48221 12 21 40.358 -15 24 46.31 20.2 w F51 – Pan-STARRS 1, Haleakala MPS 692745
2016 03 16.27490 12 18 43.40 -15 00 33.1 20.4 r G45 – Space Surveillance Telescope, Atom Site MPS 692745
2016 03 16.27962 12 18 43.17 -15 00 31.3 20.4 r G45 – Space Surveillance Telescope, Atom Site MPS 692745
2016 03 16.28459 12 18 42.94 -15 00 29.8 20.5 r G45 – Space Surveillance Telescope, Atom Site MPS 692745
2016 03 16.28925 12 18 42.70 -15 00 27.3 19.8 r G45 – Space Surveillance Telescope, Atom Site MPS 692745
2016 03 16.29292 12 18 42.49 -15 00 26.3 20.5 r G45 – Space Surveillance Telescope, Atom Site MPS 692745
2016 03 28.24798 12 08 40.57 -13 20 08.4 20.8 V W84 – Cerro Tololo-DECam MPS 803579
2016 03 28.25116 12 08 40.40 -13 20 06.5   W84 – Cerro Tololo-DECam MPS 803579
2016 03 28.25434 12 08 40.24 -13 20 04.7   W84 – Cerro Tololo-DECam MPS 803579
2016 03 28.25752 12 08 40.07 -13 20 02.8   W84 – Cerro Tololo-DECam MPS 803579
2016 03 28.26069 12 08 39.90 -13 20 01.0   W84 – Cerro Tololo-DECam MPS 803579
2016 03 29.19809 12 07 52.92 -13 10 57.2 20.7 V W84 – Cerro Tololo-DECam MPS 803579
2016 03 29.20126 12 07 52.74 -13 10 55.5   W84 – Cerro Tololo-DECam MPS 803579
2016 03 29.20444 12 07 52.58 -13 10 53.7   W84 – Cerro Tololo-DECam MPS 803579
2016 03 29.20766 12 07 52.40 -13 10 51.7   W84 – Cerro Tololo-DECam MPS 803579
2016 03 29.21089 12 07 52.23 -13 10 49.8   W84 – Cerro Tololo-DECam MPS 803579
2016 03 30.22247 12 07 01.71 -13 00 54.1 20.4 V W84 – Cerro Tololo-DECam MPS 803579
2016 03 30.22561 12 07 01.54 -13 00 52.3   W84 – Cerro Tololo-DECam MPS 803579
2016 03 30.22880 12 07 01.37 -13 00 50.3   W84 – Cerro Tololo-DECam MPS 803579
2016 03 30.23200 12 07 01.21 -13 00 48.4   W84 – Cerro Tololo-DECam MPS 803579
2016 03 30.23517 12 07 01.04 -13 00 46.5   W84 – Cerro Tololo-DECam MPS 803579
2016 03 31.24831 12 06 10.93 -12 50 41.4 20.7 V W84 – Cerro Tololo-DECam MPS 803579
2016 03 31.25149 12 06 10.77 -12 50 39.5   W84 – Cerro Tololo-DECam MPS 803579
2016 03 31.25466 12 06 10.60 -12 50 37.6   W84 – Cerro Tololo-DECam MPS 803579
2016 03 31.25786 12 06 10.44 -12 50 35.7   W84 – Cerro Tololo-DECam MPS 803579
2016 03 31.26104 12 06 10.28 -12 50 33.7   W84 – Cerro Tololo-DECam MPS 803579
2016 04 01.26100 12 05 21.43 -12 40 29.1 20.5 V W84 – Cerro Tololo-DECam MPS 803579
2016 04 01.26418 12 05 21.27 -12 40 27.2   W84 – Cerro Tololo-DECam MPS 803579
2016 04 01.26735 12 05 21.11 -12 40 25.2   W84 – Cerro Tololo-DECam MPS 803579
2016 04 01.27052 12 05 20.95 -12 40 23.3   W84 – Cerro Tololo-DECam MPS 803579
2016 04 01.27370 12 05 20.79 -12 40 21.3   W84 – Cerro Tololo-DECam MPS 803579
2016 04 02.23231 12 04 34.97 -12 30 43.9 20.3 r G45 – Space Surveillance Telescope, Atom Site MPS 698845
2016 04 02.23729 12 04 34.70 -12 30 40.8 20.7 r G45 – Space Surveillance Telescope, Atom Site MPS 698845
2016 04 02.24214 12 04 34.44 -12 30 38.0 20.9 r G45 – Space Surveillance Telescope, Atom Site MPS 698845
2016 04 02.38692 12 04 27.17 -12 29 08.2 20.2 r G45 – Space Surveillance Telescope, Atom Site MPS 698845
2016 04 02.38699 12 04 27.15 -12 29 08.2 20.4 r G45 – Space Surveillance Telescope, Atom Site MPS 698845
2017 07 26.50856 22 43 17.788 +05 46 11.20 21.2 w F51 – Pan-STARRS 1, Haleakala MPS 806626
2017 07 26.52129 22 43 17.407 +05 46 11.85 21.4 w F51 – Pan-STARRS 1, Haleakala MPS 806626
2017 07 26.53407 22 43 17.025 +05 46 12.53 21.4 w F51 – Pan-STARRS 1, Haleakala MPS 806626
2017 07 26.54682 22 43 16.654 +05 46 13.12 21.7 w F51 – Pan-STARRS 1, Haleakala MPS 806626
2017 08 23.47505 22 22 42.376 +04 39 22.52 21.0 w F51 – Pan-STARRS 1, Haleakala MPS 812099
2017 08 23.49895 22 22 41.008 +04 39 14.73 20.9 w F51 – Pan-STARRS 1, Haleakala MPS 812099
2017 08 23.51093 22 22 40.331 +04 39 10.95 21.1 w F51 – Pan-STARRS 1, Haleakala MPS 812099
2017 09 13.37456 22 04 32.615 +02 16 47.47 21.3 w F51 – Pan-STARRS 1, Haleakala MPS 815590
2017 09 13.38788 22 04 31.970 +02 16 41.37 21.3 w F51 – Pan-STARRS 1, Haleakala MPS 815590
2017 09 13.40117 22 04 31.352 +02 16 35.24 21.3 w F51 – Pan-STARRS 1, Haleakala MPS 815590
2017 09 13.41446 22 04 30.726 +02 16 29.09 21.2 w F51 – Pan-STARRS 1, Haleakala MPS 815590
2017 09 28.22394 21 55 48.08 +00 24 44.0   691 – Steward Observatory, Kitt Peak-Spacewatch MPS 819186
2017 09 28.23594 21 55 47.73 +00 24 38.7   691 – Steward Observatory, Kitt Peak-Spacewatch MPS 819186
2017 09 28.24775 21 55 47.44 +00 24 34.0   691 – Steward Observatory, Kitt Peak-Spacewatch MPS 819186
2018 12 17.305170 06 42 19.64 +13 26 05.6 20.43 r I41 – Palomar Mountain--ZTF MPS 942464
2018 12 17.311569 06 42 19.21 +13 26 04.4 20.23 r I41 – Palomar Mountain--ZTF MPS 942464
2018 12 17.440390 06 42 11.25 +13 25 35.7 20.40 r I41 – Palomar Mountain--ZTF MPS 942464
2018 12 17.443140 06 42 11.09 +13 25 35.1 20.51 r I41 – Palomar Mountain--ZTF MPS 942464
